Погода в Мымрино

Россия / Орловская область     53°18′09″N   35°29′25″E
темп.,
°C
ветер,
м/с
пор.,
м/с
влажн.,
%
обл.,
%
осадки,
мм/ч
давл.,
гПа
погр.,
м
12 апреля, пн
пн1200:00+7всв3569100 0.0 103066
03:00+5всв3975100 0.0 1031147
06:00+5всв41369100 0.0 1029287
09:00+7всв61358100 0.0 1028520
12:00+11в5874100 0.3 1027547
15:00+15в6866100 0.3 1025766
18:00+14в4973100 0.0 1023333
21:00+11в4148290 0.0 1023260
13 апреля, вт
вт1300:00+11юв5157417 0.0 1023291
03:00+9юв4108466 0.0 1023150
06:00+8юв378884 0.0 1024111
09:00+13юв596667 0.0 1023319
12:00+17юв6105198 0.0 1023964
15:00+19ююв684294 0.0 10221743
18:00+16юв37527 0.0 1021196
21:00+13ююв366399 0.0 1021124
14 апреля, ср
ср1400:00+11ююв2278100 0.0 102018
03:00+10юв3484100 0.0 102055
06:00+10ююв378595 0.0 1019162
09:00+13ююв357475 0.0 1019398
12:00+17юв465690 0.1 1018986
15:00+18ююв5737100 0.2 10171966
18:00+16вюв3753100 0.0 1016198
21:00+13ююв51161100 0.0 1017366
15 апреля, чт
чт1500:00+10юв2281100 0.0 101619
03:00+10ююз1189100 0.0 101618
06:00+9юв119398 0.0 101612
09:00+11ююв2680100 0.0 1017271
12:00+12ссз1071100 0.1 1016304
15:00+15св2459100 0.1 10151032
18:00+14ссв356899 1.1 1013119
21:00+11в117298 1.1 101312
16 апреля, пт
пт1600:00+10в227863 0.0 101335
03:00+8всв348611 0.0 101358
06:00+8всв379198 0.0 1013136
09:00+11вюв368066 0.7 1014323
12:00+15вюв456595 1.6 10141036
15:00+16вюв465599 3.1 10141750
18:00+13ю2472100 0.6 1015124
21:00+10ююз228373 0.8 101710